Weather History for Laurinburg-Maxton, NC

Change the Weather History Date:

Saturday, September 14, 2013

  Actual Average (KLBT) Record (KLBT)
Temperature  
Mean Temperature 70 °F 74 °F  
Max Temperature 80 °F 84 °F 94 °F (2010)
Min Temperature 62 °F 63 °F 56 °F (2010)
Degree Days  
Heating Degree Days 0 0  
Month to date heating degree days 0  
Since 1 July heating degree days 0  
Cooling Degree Days 6 9  
Month to date cooling degree days 143  
Year to date cooling degree days 1715  
Growing Degree Days 20 (Base 50)    
Moisture  
Dew Point 52 °F    
Average Humidity 55    
Maximum Humidity 80    
Minimum Humidity 40    
Precipitation  
Precipitation 0.00 in 0.14 in 0.81 in (2002)
Month to date precipitation 2.34  
Year to date precipitation 32.73  
Sea Level Pressure  
Sea Level Pressure 30.00 in    
Wind  
Wind Speed 11 mph (NE)    
Max Wind Speed 18 mph    
Max Gust Speed 24 mph    
Visibility 10 miles    
Events      
T = Trace of Precipitation, MM = Missing Value Source: NWS Daily Summary

Daily Weather History Graph

Daily Weather History Graph

Search for Another Location

Airport:

Trip Planner

Search our weather history database for the weather conditions in past years. The results will help you decide how hot, cold, wet, or windy it might be!

Date:

Astronomy

Sep. 14, 2013 Rise Set
Actual Time 6:59 AM EDT 7:25 PM EDT
Civil Twilight 6:34 AM EDT 7:50 PM EDT
Nautical Twilight 6:04 AM EDT 8:20 PM EDT
Astronomical Twilight 5:34 AM EDT 8:50 PM EDT
Moon 3:56 PM EDT (9/14) 1:39 AM EDT (9/14)
Length of Visible Light 13h 16m
Length of Day
12h 25m
Waxing Gibbous, 72% of the Moon is Illuminated
Sep 14
Waxing Gibbous
Sep 19
Full
Sep 26
Last Quarter
Oct 4
New
Oct 11
First Quarter

Hourly Weather History & Observations

Time (EDT) Temp. Dew Point Humidity Pressure Visibility Wind Dir Wind Speed Gust Speed Precip Events Conditions
12:52 AM 70.0 °F 51.1 °F 51% 29.87 in 10.0 mi NNE 11.5 mph - N/A   Partly Cloudy
1:52 AM 68.0 °F 50.0 °F 52% 29.87 in 10.0 mi NNE 11.5 mph - N/A   Scattered Clouds
2:52 AM 66.0 °F 50.0 °F 56% 29.88 in 10.0 mi NNE 10.4 mph - N/A   Mostly Cloudy
3:52 AM 64.9 °F 50.0 °F 58% 29.91 in 10.0 mi North 8.1 mph - N/A   Mostly Cloudy
4:52 AM 64.0 °F 51.1 °F 63% 29.92 in 10.0 mi NNE 11.5 mph - N/A   Scattered Clouds
5:52 AM 64.9 °F 52.0 °F 63% 29.93 in 10.0 mi NE 13.8 mph - N/A   Mostly Cloudy
6:52 AM 64.0 °F 48.9 °F 58% 29.95 in 10.0 mi NE 10.4 mph - N/A   Partly Cloudy
7:52 AM 63.0 °F 48.9 °F 60% 29.98 in 10.0 mi NE 13.8 mph 21.9 mph N/A   Partly Cloudy
8:52 AM 66.0 °F 48.9 °F 54% 30.00 in 10.0 mi ENE 16.1 mph 21.9 mph N/A   Clear
9:52 AM 68.0 °F 48.0 °F 49% 30.02 in 10.0 mi NE 18.4 mph 24.2 mph N/A   Clear
10:52 AM 72.0 °F 48.9 °F 44% 30.04 in 10.0 mi NE 17.3 mph 20.7 mph N/A   Mostly Cloudy
11:52 AM 73.9 °F 50.0 °F 43% 30.04 in 10.0 mi NE 12.7 mph - N/A   Partly Cloudy
12:52 PM 75.9 °F 51.1 °F 42% 30.04 in 10.0 mi NNE 15.0 mph 20.7 mph N/A   Clear
1:52 PM 78.1 °F 52.0 °F 40% 30.03 in 10.0 mi East 11.5 mph 19.6 mph N/A   Clear
2:52 PM 78.1 °F 52.0 °F 40% 30.03 in 10.0 mi NE 9.2 mph - N/A   Clear
3:52 PM 78.1 °F 52.0 °F 40% 30.02 in 10.0 mi ENE 6.9 mph - N/A   Clear
4:52 PM 79.0 °F 53.1 °F 40% 30.02 in 10.0 mi East 5.8 mph - N/A   Clear
5:52 PM 78.1 °F 52.0 °F 40% 30.03 in 10.0 mi NNE 6.9 mph - N/A   Clear
6:52 PM 75.0 °F 54.0 °F 48% 30.04 in 10.0 mi East 5.8 mph - N/A   Clear
7:52 PM 66.9 °F 55.9 °F 68% 30.06 in 10.0 mi ENE 5.8 mph - N/A   Clear
8:52 PM 64.9 °F 55.9 °F 73% 30.09 in 10.0 mi ENE 4.6 mph - N/A   Clear
9:52 PM 63.0 °F 55.9 °F 78% 30.11 in 10.0 mi ENE 3.5 mph - N/A   Clear
10:52 PM 62.1 °F 55.0 °F 78% 30.12 in 10.0 mi Calm Calm - N/A   Partly Cloudy
11:52 PM 62.1 °F 55.9 °F 80% 30.12 in 10.0 mi ENE 4.6 mph - N/A   Mostly Cloudy